Tracking 19146 objects as of 23-Apr-2018
HD Live streaming from Space Station
objects crossing your sky now

ARIANE 5 DEB (SYLDA)

Track ARIANE 5 DEB (SYLDA) now!
10-day predictions


NORAD ID: 39081
Int'l Code: 2013-006D
Perigee: 252.2 km
Apogee: 25,113.4 km
Inclination: 6.0 °
Period: 436.2 minutes
Semi major axis: 19053 km
RCS: 0.003 m2 (small)
Launch date: February 7, 2013
Source: France (FR)
Launch site: FRENCH GUIANA (FRGUI)

Note: This is SATELLITE DEBRIS
aabbcc
Your satellite tracking list
Your tracking list is empty




NASA's NSSDC Master Catalog

Two Line Element Set (TLE):
1 39081U 13006D   18112.72496617  .00029680  00000-0  41780-2 0  9993
2 39081   6.0222  11.4507 6523947 349.9968   1.6708  3.30087909 52320
Source of the keplerian elements: AFSPC